Time,TemperatureF,DewpointF,PressureIn,WindDirection,WindDirectionDegrees,WindSpeedMPH,WindSpeedGustMPH,Humidity,HourlyPrecipIn,Conditions,Clouds,dailyrainin,SoftwareType,DateUTC
2013-04-25 00:07:00,38.4,37.0,29.84,NW,315,5.0,9.0,94,0.00,,,0.00,weatherlink.com 1.10,2013-04-25 07:07:00,
2013-04-25 00:22:00,38.3,37.0,29.84,WSW,241,2.0,10.0,94,0.00,,,0.00,weatherlink.com 1.10,2013-04-25 07:22:00,
2013-04-25 00:37:00,38.2,37.0,29.84,SW,226,4.0,11.0,94,0.00,,,0.00,weatherlink.com 1.10,2013-04-25 07:37:00,
2013-04-25 00:52:00,38.1,37.0,29.84,NW,310,6.0,14.0,94,0.00,,,0.00,weatherlink.com 1.10,2013-04-25 07:52:00,
2013-04-25 01:07:00,37.5,36.0,29.84,SW,217,2.0,15.0,94,0.00,,,0.00,weatherlink.com 1.10,2013-04-25 08:07:00,
2013-04-25 01:22:00,37.6,36.0,29.84,WSW,248,9.0,12.0,95,0.00,,,0.00,weatherlink.com 1.10,2013-04-25 08:22:00,
2013-04-25 01:37:00,37.8,37.0,29.83,West,276,10.0,14.0,95,0.00,,,0.00,weatherlink.com 1.10,2013-04-25 08:37:00,
2013-04-25 01:52:00,36.9,36.0,29.83,WSW,252,6.0,16.0,95,0.00,,,0.00,weatherlink.com 1.10,2013-04-25 08:52:00,
2013-04-25 02:07:00,36.7,35.0,29.83,WSW,238,5.0,13.0,95,0.00,,,0.00,weatherlink.com 1.10,2013-04-25 09:07:00,
2013-04-25 02:22:00,36.5,35.0,29.82,West,264,4.0,13.0,95,0.00,,,0.00,weatherlink.com 1.10,2013-04-25 09:22:00,
2013-04-25 02:37:00,36.2,35.0,29.82,West,261,4.0,14.0,94,0.00,,,0.00,weatherlink.com 1.10,2013-04-25 09:37:00,
2013-04-25 02:52:00,36.0,35.0,29.81,West,273,4.0,14.0,94,0.00,,,0.00,weatherlink.com 1.10,2013-04-25 09:52:00,
2013-04-25 03:07:00,35.9,34.0,29.81,WNW,288,7.0,14.0,94,0.00,,,0.00,weatherlink.com 1.10,2013-04-25 10:07:00,
2013-04-25 03:22:00,35.6,34.0,29.82,West,274,4.0,16.0,94,0.00,,,0.00,weatherlink.com 1.10,2013-04-25 10:22:00,
2013-04-25 03:37:00,35.4,34.0,29.82,WSW,254,8.0,17.0,94,0.00,,,0.00,weatherlink.com 1.10,2013-04-25 10:37:00,
2013-04-25 03:52:00,35.7,34.0,29.82,WSW,247,4.0,13.0,94,0.00,,,0.00,weatherlink.com 1.10,2013-04-25 10:52:00,
2013-04-25 04:07:00,35.9,35.0,29.82,WNW,303,3.0,18.0,95,0.00,,,0.00,weatherlink.com 1.10,2013-04-25 11:07:00,
2013-04-25 04:22:00,35.6,34.0,29.82,WNW,291,6.0,20.0,95,0.00,,,0.00,weatherlink.com 1.10,2013-04-25 11:22:00,
2013-04-25 04:37:00,35.7,35.0,29.83,NW,306,4.0,14.0,96,0.00,,,0.00,weatherlink.com 1.10,2013-04-25 11:37:00,
2013-04-25 04:53:00,35.7,35.0,29.82,West,279,13.0,20.0,96,0.00,,,0.00,weatherlink.com 1.10,2013-04-25 11:53:00,
2013-04-25 05:08:00,35.8,35.0,29.83,WNW,289,13.0,17.0,96,0.00,,,0.00,weatherlink.com 1.10,2013-04-25 12:08:00,
2013-04-25 05:23:00,35.7,35.0,29.83,WSW,257,12.0,21.0,96,0.00,,,0.00,weatherlink.com 1.10,2013-04-25 12:23:00,
2013-04-25 05:38:00,35.9,35.0,29.84,West,265,5.0,19.0,97,0.00,,,0.00,weatherlink.com 1.10,2013-04-25 12:38:00,
2013-04-25 05:53:00,36.3,36.0,29.84,West,273,13.0,16.0,97,0.00,,,0.00,weatherlink.com 1.10,2013-04-25 12:53:00,
2013-04-25 06:08:00,36.2,36.0,29.85,West,261,16.0,22.0,97,0.00,,,0.00,weatherlink.com 1.10,2013-04-25 13:08:00,
2013-04-25 06:23:00,36.5,36.0,29.86,WNW,285,13.0,21.0,97,0.00,,,0.00,weatherlink.com 1.10,2013-04-25 13:23:00,
2013-04-25 06:38:00,36.5,36.0,29.87,West,280,12.0,18.0,97,0.00,,,0.00,weatherlink.com 1.10,2013-04-25 13:38:00,
2013-04-25 06:53:00,36.8,36.0,29.88,WNW,288,12.0,21.0,97,0.00,,,0.00,weatherlink.com 1.10,2013-04-25 13:53:00,
2013-04-25 07:08:00,37.2,37.0,29.89,WNW,296,9.0,17.0,97,0.00,,,0.00,weatherlink.com 1.10,2013-04-25 14:08:00,
2013-04-25 07:23:00,37.5,37.0,29.89,WNW,291,8.0,16.0,97,0.00,,,0.00,weatherlink.com 1.10,2013-04-25 14:23:00,
2013-04-25 07:38:00,37.5,37.0,29.90,WSW,258,9.0,17.0,97,0.00,,,0.00,weatherlink.com 1.10,2013-04-25 14:38:00,
2013-04-25 07:53:00,37.6,37.0,29.90,NW,307,15.0,17.0,97,0.00,,,0.00,weatherlink.com 1.10,2013-04-25 14:53:00,
2013-04-25 08:08:00,37.7,37.0,29.91,WSW,243,11.0,20.0,97,0.00,,,0.00,weatherlink.com 1.10,2013-04-25 15:08:00,
2013-04-25 08:23:00,37.9,37.0,29.91,West,281,8.0,16.0,97,0.00,,,0.00,weatherlink.com 1.10,2013-04-25 15:23:00,
2013-04-25 08:38:00,39.2,39.0,29.93,NW,317,13.0,14.0,97,0.00,,,0.00,weatherlink.com 1.10,2013-04-25 15:38:00,
2013-04-25 08:53:00,38.4,38.0,29.94,NNW,348,5.0,15.0,97,0.00,,,0.00,weatherlink.com 1.10,2013-04-25 15:53:00,
2013-04-25 09:08:00,38.4,38.0,29.95,West,276,11.0,16.0,97,0.00,,,0.00,weatherlink.com 1.10,2013-04-25 16:08:00,
2013-04-25 09:23:00,39.3,39.0,29.96,West,266,6.0,17.0,97,0.00,,,0.00,weatherlink.com 1.10,2013-04-25 16:23:00,
2013-04-25 09:38:00,40.3,40.0,29.97,WNW,302,10.0,17.0,97,0.00,,,0.00,weatherlink.com 1.10,2013-04-25 16:38:00,
2013-04-25 09:53:00,43.0,41.0,29.98,NW,311,7.0,12.0,94,0.00,,,0.00,weatherlink.com 1.10,2013-04-25 16:53:00,
2013-04-25 10:08:00,44.0,41.0,29.98,NW,315,9.0,16.0,88,0.00,,,0.00,weatherlink.com 1.10,2013-04-25 17:08:00,
2013-04-25 10:23:00,46.2,41.0,29.99,West,269,8.0,12.0,82,0.00,,,0.00,weatherlink.com 1.10,2013-04-25 17:23:00,
2013-04-25 10:38:00,49.9,41.0,30.00,NW,309,3.0,9.0,71,0.00,,,0.00,weatherlink.com 1.10,2013-04-25 17:38:00,
2013-04-25 10:53:00,55.6,38.0,30.00,NNE,28,7.0,10.0,53,0.00,,,0.00,weatherlink.com 1.10,2013-04-25 17:53:00,
2013-04-25 11:08:00,56.0,40.0,30.00,NW,325,4.0,10.0,55,0.00,,,0.00,weatherlink.com 1.10,2013-04-25 18:08:00,
2013-04-25 11:24:00,58.8,38.0,30.00,NNW,328,5.0,10.0,47,0.00,,,0.00,weatherlink.com 1.10,2013-04-25 18:24:00,
2013-04-25 11:39:00,59.4,41.0,30.00,East,84,5.0,9.0,51,0.00,,,0.00,weatherlink.com 1.10,2013-04-25 18:39:00,
2013-04-25 11:54:00,59.6,42.0,30.00,NW,317,5.0,11.0,52,0.00,,,0.00,weatherlink.com 1.10,2013-04-25 18:54:00,
2013-04-25 12:09:00,57.4,42.0,30.01,West,265,8.0,15.0,57,0.00,,,0.00,weatherlink.com 1.10,2013-04-25 19:09:00,
2013-04-25 12:24:00,57.5,41.0,30.01,NNW,338,4.0,12.0,55,0.00,,,0.00,weatherlink.com 1.10,2013-04-25 19:24:00,
2013-04-25 12:39:00,60.0,39.0,30.01,ENE,57,2.0,10.0,47,0.00,,,0.00,weatherlink.com 1.10,2013-04-25 19:39:00,
2013-04-25 12:54:00,62.5,45.0,30.01,SSE,163,8.0,11.0,54,0.00,,,0.00,weatherlink.com 1.10,2013-04-25 19:54:00,
2013-04-25 13:09:00,63.1,43.0,30.02,SSE,164,2.0,10.0,49,0.00,,,0.00,weatherlink.com 1.10,2013-04-25 20:09:00,
2013-04-25 13:24:00,63.0,43.0,30.02,SE,143,5.0,7.0,48,0.00,,,0.00,weatherlink.com 1.10,2013-04-25 20:24:00,
2013-04-25 13:39:00,63.6,43.0,30.03,SSE,160,5.0,7.0,47,0.00,,,0.00,weatherlink.com 1.10,2013-04-25 20:39:00,
2013-04-25 13:54:00,65.3,41.0,30.03,SSE,167,4.0,10.0,42,0.00,,,0.00,weatherlink.com 1.10,2013-04-25 20:54:00,
2013-04-25 14:09:00,64.5,44.0,30.03,South,172,1.0,11.0,48,0.00,,,0.00,weatherlink.com 1.10,2013-04-25 21:09:00,
2013-04-25 14:24:00,64.1,43.0,30.03,SSW,211,3.0,8.0,47,0.00,,,0.00,weatherlink.com 1.10,2013-04-25 21:24:00,
2013-04-25 14:39:00,64.8,46.0,30.03,ESE,119,7.0,9.0,50,0.00,,,0.00,weatherlink.com 1.10,2013-04-25 21:39:00,
2013-04-25 14:54:00,64.6,44.0,30.03,West,277,6.0,8.0,48,0.00,,,0.00,weatherlink.com 1.10,2013-04-25 21:54:00,
2013-04-25 15:09:00,64.3,43.0,30.03,West,277,4.0,11.0,46,0.00,,,0.00,weatherlink.com 1.10,2013-04-25 22:09:00,
2013-04-25 15:24:00,64.7,46.0,30.02,South,188,7.0,10.0,51,0.00,,,0.00,weatherlink.com 1.10,2013-04-25 22:24:00,
2013-04-25 15:39:00,65.5,41.0,30.03,NNE,22,2.0,11.0,41,0.00,,,0.00,weatherlink.com 1.10,2013-04-25 22:39:00,
2013-04-25 15:54:00,65.7,40.0,30.02,NW,321,3.0,9.0,39,0.00,,,0.00,weatherlink.com 1.10,2013-04-25 22:54:00,
2013-04-25 16:09:00,66.3,38.0,30.03,North,360,8.0,9.0,35,0.00,,,0.00,weatherlink.com 1.10,2013-04-25 23:09:00,
2013-04-25 16:24:00,67.0,36.0,30.03,NNW,333,3.0,7.0,32,0.00,,,0.00,weatherlink.com 1.10,2013-04-25 23:24:00,
2013-04-25 16:39:00,66.5,36.0,30.03,NNW,328,0.0,10.0,33,0.00,,,0.00,weatherlink.com 1.10,2013-04-25 23:39:00,
2013-04-25 16:54:00,65.4,35.0,30.04,NNW,342,1.0,9.0,33,0.00,,,0.00,weatherlink.com 1.10,2013-04-25 23:54:00,
2013-04-25 17:09:00,64.4,40.0,30.04,NW,304,6.0,10.0,41,0.00,,,0.00,weatherlink.com 1.10,2013-04-26 00:09:00,
2013-04-25 17:24:00,62.3,40.0,30.04,WNW,302,3.0,10.0,44,0.00,,,0.00,weatherlink.com 1.10,2013-04-26 00:24:00,
2013-04-25 17:39:00,62.0,41.0,30.04,NW,306,3.0,10.0,46,0.00,,,0.00,weatherlink.com 1.10,2013-04-26 00:39:00,
2013-04-25 17:54:00,61.1,41.0,30.05,WNW,302,4.0,7.0,47,0.00,,,0.00,weatherlink.com 1.10,2013-04-26 00:54:00,
2013-04-25 18:09:00,61.2,35.0,30.05,NW,315,4.0,8.0,38,0.00,,,0.00,weatherlink.com 1.10,2013-04-26 01:09:00,
2013-04-25 18:24:00,59.7,39.0,30.05,NW,304,3.0,8.0,46,0.00,,,0.00,weatherlink.com 1.10,2013-04-26 01:24:00,
2013-04-25 18:39:00,59.1,35.0,30.05,NNW,328,5.0,6.0,41,0.00,,,0.00,weatherlink.com 1.10,2013-04-26 01:39:00,
2013-04-25 18:54:00,58.4,37.0,30.06,NNW,328,0.0,4.0,45,0.00,,,0.00,weatherlink.com 1.10,2013-04-26 01:54:00,
2013-04-25 19:09:00,55.5,33.0,30.06,NNW,328,1.0,3.0,43,0.00,,,0.00,weatherlink.com 1.10,2013-04-26 02:09:00,
2013-04-25 19:24:00,52.2,30.0,30.07,NNW,328,2.0,3.0,43,0.00,,,0.00,weatherlink.com 1.10,2013-04-26 02:24:00,
2013-04-25 19:39:00,49.7,28.0,30.07,NNW,328,2.0,4.0,43,0.00,,,0.00,weatherlink.com 1.10,2013-04-26 02:39:00,
2013-04-25 19:54:00,48.1,26.0,30.09,NW,319,2.0,5.0,42,0.00,,,0.00,weatherlink.com 1.10,2013-04-26 02:54:00,
2013-04-25 20:09:00,47.1,25.0,30.09,NW,319,2.0,3.0,43,0.00,,,0.00,weatherlink.com 1.10,2013-04-26 03:09:00,
2013-04-25 20:24:00,47.1,25.0,30.10,NW,313,2.0,6.0,43,0.00,,,0.00,weatherlink.com 1.10,2013-04-26 03:24:00,
2013-04-25 20:39:00,48.0,26.0,30.11,NNW,327,3.0,6.0,42,0.00,,,0.00,weatherlink.com 1.10,2013-04-26 03:39:00,
2013-04-25 20:54:00,48.0,25.0,30.12,NW,325,5.0,6.0,40,0.00,,,0.00,weatherlink.com 1.10,2013-04-26 03:54:00,
2013-04-25 21:10:00,47.9,23.0,30.12,NW,326,2.0,5.0,37,0.00,,,0.00,weatherlink.com 1.10,2013-04-26 04:10:00,
2013-04-25 21:25:00,47.9,21.0,30.13,NW,306,3.0,6.0,35,0.00,,,0.00,weatherlink.com 1.10,2013-04-26 04:25:00,
2013-04-25 21:40:00,48.0,20.0,30.14,NNW,332,2.0,5.0,33,0.00,,,0.00,weatherlink.com 1.10,2013-04-26 04:40:00,
2013-04-25 21:55:00,47.8,20.0,30.14,NNW,329,2.0,4.0,33,0.00,,,0.00,weatherlink.com 1.10,2013-04-26 04:55:00,
2013-04-25 22:10:00,48.0,19.0,30.14,NW,321,3.0,5.0,32,0.00,,,0.00,weatherlink.com 1.10,2013-04-26 05:10:00,
2013-04-25 22:25:00,48.0,21.0,30.14,NW,315,3.0,5.0,34,0.00,,,0.00,weatherlink.com 1.10,2013-04-26 05:25:00,
2013-04-25 22:40:00,48.0,20.0,30.14,NW,313,2.0,5.0,33,0.00,,,0.00,weatherlink.com 1.10,2013-04-26 05:40:00,
2013-04-25 22:55:00,48.1,21.0,30.15,WNW,291,3.0,6.0,35,0.00,,,0.00,weatherlink.com 1.10,2013-04-26 05:55:00,
2013-04-25 23:10:00,48.7,23.0,30.15,NW,320,2.0,7.0,36,0.00,,,0.00,weatherlink.com 1.10,2013-04-26 06:10:00,
2013-04-25 23:25:00,49.0,22.0,30.15,NNW,343,4.0,8.0,35,0.00,,,0.00,weatherlink.com 1.10,2013-04-26 06:25:00,
2013-04-25 23:40:00,50.4,21.0,30.14,NW,304,7.0,9.0,32,0.00,,,0.00,weatherlink.com 1.10,2013-04-26 06:40:00,
2013-04-25 23:55:00,50.7,21.0,30.15,WNW,287,4.0,10.0,31,0.00,,,0.00,weatherlink.com 1.10,2013-04-26 06:55:00,